DW7098 Weather Reports


time (UTC)temp
F
wind
direction
speed
knots
gust
knots
rain 1hr
in
rain 24hr
in
rain mn
in
humidity
%
barometer
mb
20260902073041 59 93 0.0 1.7 0.00 0.00 0.00
20260902070109 59 56 0.0 0.9 0.00 0.00 0.00
20260902063044 59 70 0.0 1.7 0.00 0.00 0.00
20260902060055 60 237 0.0 0.0 0.00 0.00 0.00
20260902050107 60 42 0.0 0.9 0.00 0.00 0.00
20260902043048 60 292 0.0 0.9 0.00 0.00 0.00
20260902040100 60 231 0.0 0.9 0.00 0.00 0.00
20260902033037 60 249 0.0 0.9 0.00 0.00 0.00
20260902023031 61 165 0.0 2.6 0.00 0.00 0.00
20260902020104 62 298 0.0 3.5 0.00 0.00 0.00
20260902013044 62 192 0.9 5.2 0.00 0.00 0.00
20260902010113 62 214 0.9 3.5 0.00 0.00 0.00
20260902000103 64 219 0.9 3.5 0.00 0.00 0.00
20260901233046 63 250 0.0 5.2 0.00 0.00 0.00
20260901230053 63 227 0.0 4.3 0.00 0.00 0.00
20260901223034 62 73 0.0 2.6 0.00 0.00 0.00
20260901213049 63 251 0.0 0.9 0.00 0.00 0.00
20260901210100 64 190 0.0 0.9 0.00 0.00 0.00
20260901203040 64 243 1.7 3.5 0.00 0.00 0.00
20260901193034 63 204 0.0 2.6 0.00 0.00 0.00
20260901183045 63 255 1.7 7.0 0.00 0.00 0.00
20260901180056 64 180 0.9 5.2 0.00 0.00 0.00
20260901170108 62 216 0.9 3.5 0.00 0.00 0.00
20260901160101 62 265 0.9 2.6 0.00 0.00 0.00
20260901153040 61 217 0.0 4.3 0.00 0.00 0.00
20260901150111 61 171 0.0 1.7 0.00 0.00 0.00
20260901143047 60 232 0.0 3.5 0.00 0.00 0.00
20260901133039 60 258 1.7 4.3 0.00 0.00 0.00
20260901130111 60 234 0.0 3.5 0.00 0.00 0.00
20260901120104 60 250 0.0 4.3 0.00 0.00 0.00
20260901110055 60 261 0.9 4.3 0.00 0.00 0.00
20260901103035 60 271 0.9 4.3 0.00 0.00 0.00
20260901093044 60 235 0.0 2.6 0.00 0.00 0.00
20260901083038 60 224 0.0 2.6 0.00 0.00 0.00